WGS F4 (USA 233)

Last updated on Tue Oct 08 2024 00:02:39 GMT+0000 (Coordinated Universal Time)

1 38070U 12003A 24281.06008191 -.00000204 00000+0 00000+0 0 9991 2 38070 0.0146 163.2089 0001074 340.9901 342.0732 1.00270251 37940
UTC large
Height (km)
Speed (km/s)
/
Latitude / Longitude
Inclination (degrees)
Orbital Period (minutes)
Azimuth
Elevation
Range (km)
Doppler Factor

Next 0 passes for location: London (51.5072 / 0.1276)

Sorry there are no passes over London.